EDT,Max TemperatureF,Mean TemperatureF,Min TemperatureF,Max Dew PointF,MeanDew PointF,Min DewpointF,Max Humidity, Mean Humidity, Min Humidity, Max Sea Level PressureIn, Mean Sea Level PressureIn, Min Sea Level PressureIn, Max VisibilityMiles, Mean VisibilityMiles, Min VisibilityMiles, Max Wind SpeedMPH, Mean Wind SpeedMPH, Max Gust SpeedMPH,PrecipitationIn, CloudCover, Events, WindDirDegrees
2013-6-1,73,68,64,66,65,64,100,87,78,29.92,29.87,29.79,10,10,10,23,10,29,0.00,5,,190
2013-6-2,71,66,62,63,60,59,94,76,64,29.96,29.92,29.90,10,10,10,16,8,,0.00,5,,281
2013-6-3,66,60,53,48,47,46,82,64,49,30.09,30.04,30.01,10,10,10,13,7,,0.00,4,,335
2013-6-4,73,60,50,52,48,45,100,64,36,30.18,30.13,30.09,10,10,10,12,4,,0.00,0,,88
2013-6-5,78,66,55,63,54,50,88,57,41,30.07,29.99,29.87,10,10,10,6,3,,0.00,3,,87
2013-6-6,75,68,60,64,63,59,100,85,69,29.82,29.81,29.79,10,8,3,12,6,,0.00,5,Rain,357
2013-6-7,75,67,59,59,57,55,100,70,50,29.87,29.85,29.82,10,7,2,9,6,,0.00,6,,14
2013-6-8,75,67,59,64,60,57,94,78,53,30.02,29.98,29.94,10,6,3,9,2,,0.00,5,,100
2013-6-9,80,72,64,66,61,52,94,69,42,30.05,29.98,29.87,10,9,3,16,3,23,0.00,6,,153
2013-6-10,73,68,64,66,64,63,100,84,69,29.86,29.84,29.82,10,9,7,18,8,,0.00,6,Rain,211
2013-6-11,82,72,62,64,62,59,94,71,45,29.99,29.98,29.95,10,10,10,9,5,,0.00,0,,262
2013-6-12,86,78,69,73,71,68,100,73,58,29.96,29.88,29.75,10,10,7,21,7,30,0.00,3,,213
2013-6-13,78,73,68,70,59,50,94,62,36,29.96,29.83,29.66,10,10,10,18,14,25,0.00,4,,327
2013-6-14,78,66,55,61,56,52,100,63,39,30.08,30.04,30.02,10,10,10,9,5,,0.00,1,,360
2013-6-15,84,72,59,61,58,55,100,60,37,30.13,30.06,29.98,10,10,7,21,5,23,0.00,0,,216
2013-6-16,75,72,68,68,67,64,94,86,73,30.03,30.00,29.97,10,9,5,12,4,21,0.00,5,Rain,228
2013-6-17,86,76,66,73,68,61,100,79,45,29.99,29.96,29.89,10,6,0,0,0,,0.00,5,Fog,-1
2013-6-18,80,71,64,66,64,63,94,78,61,29.95,29.93,29.92,10,10,10,9,6,,0.00,3,,311
2013-6-19,80,70,59,61,57,54,100,65,42,30.12,30.09,30.06,10,10,8,7,4,,0.00,1,,58
2013-6-20,84,72,59,61,57,50,100,54,30,30.21,30.17,30.13,10,10,10,10,2,,0.00,1,,178
2013-6-21,87,74,60,66,60,55,94,53,33,30.21,30.17,30.13,10,10,7,12,4,,0.00,1,,194
2013-6-22,86,77,68,73,69,66,100,79,51,30.17,30.13,30.08,10,8,4,14,7,,0.00,4,Rain-Thunderstorm,203
2013-6-23,86,75,64,72,68,64,100,81,48,30.14,30.12,30.08,10,6,1,18,5,32,0.00,4,Rain,199
2013-6-24,80,74,68,72,70,68,100,82,65,30.16,30.11,30.05,10,8,5,13,6,,0.00,3,,207
2013-6-25,87,76,66,73,71,66,100,75,58,30.05,30.00,29.92,10,9,3,17,10,,0.00,1,,215
2013-6-26,82,74,66,73,69,66,100,90,74,29.93,29.85,29.77,10,9,5,12,7,,0.00,5,Rain,196
2013-6-27,86,77,68,73,71,68,100,78,58,29.81,29.79,29.76,10,8,3,15,5,21,0.00,5,,303
2013-6-28,84,76,68,66,62,55,94,63,39,29.72,29.68,29.63,10,10,7,21,10,22,0.00,3,Rain,295
2013-6-29,73,68,62,66,65,63,100,88,73,29.65,29.63,29.62,20,10,3,9,3,,0.00,5,Rain,300
2013-6-30,73,68,64,66,65,64,100,92,73,29.84,29.78,29.72,10,8,5,8,2,,0.00,5,Rain,12